Theta_e
312 312 313 313 313 312 306 298 288 302 299 287 280 280 285 291 287 290 287 285 283 281 281 279 279 280 280 286 284 280 280 277 274 278 283 285 281 279 279 273 272 271 270 275
311 312 312 313 313 311 299 294 294 302 297 283 280 283 286 288 287 287 286 285 286 284 282 279 283 283 287 287 284 281 282 278 272 277 280 282 280 282 281 280 277 271 270 276
311 311 311 312 312 313 299 294 286 290 290 287 284 283 284 284 288 287 287 286 286 284 282 283 281 283 286 287 286 293 288 280 279 276 278 281 278 280 282 280 270 273 274 278
311 311 311 311 311 311 300 291 288 287 284 286 286 287 286 285 284 287 287 285 284 283 280 281 280 284 284 286 290 285 283 277 279 280 282 282 282 283 281 277 281 276 282 277
310 311 311 311 311 309 295 289 287 288 287 288 286 287 285 286 287 286 284 283 287 285 283 284 283 284 283 284 283 282 282 278 280 280 282 282 281 283 283 283 283 282 282 281
310 310 310 310 310 304 292 293 293 291 288 286 284 284 286 288 288 288 290 288 286 285 287 287 287 288 288 287 284 281 281 278 278 274 280 281 277 282 284 281 283 283 280 283
310 310 309 309 310 306 295 293 292 289 284 286 286 287 288 288 288 286 290 289 287 288 290 290 288 286 286 285 286 286 280 279 279 274 278 271 281 285 287 285 285 285 285 286
309 308 307 308 308 309 298 295 293 289 283 287 287 287 287 287 288 287 289 290 290 290 289 284 282 282 283 284 282 284 284 281 278 275 272 278 284 283 283 283 282 285 285 287
306 306 305 306 306 306 300 297 296 292 286 285 289 288 288 285 284 286 288 289 290 289 287 285 279 277 280 279 279 284 284 284 281 276 273 273 280 284 286 286 279 286 286 285
303 303 303 304 304 304 301 299 298 293 287 289 289 287 287 290 287 286 287 287 287 289 283 281 279 278 283 278 278 278 278 278 279 280 277 279 285 286 287 277 278 286 287 286
302 302 302 302 303 303 300 299 301 295 289 290 293 294 290 290 289 285 287 287 286 285 282 281 281 279 282 279 281 279 278 277 276 279 277 274 286 286 281 284 286 286 286 287
301 301 301 301 301 301 301 298 300 300 296 294 296 297 297 295 294 290 290 288 288 288 283 282 282 281 281 280 278 281 279 282 281 282 281 288 287 287 289 289 288 288 287 287
299 299 299 299 300 300 299 293 296 294 294 294 294 292 296 298 297 299 290 289 291 290 292 289 287 283 285 279 281 281 284 287 284 285 286 287 288 287 287 288 287 287 287 286
298 298 298 298 298 298 298 291 294 292 291 286 289 296 293 296 296 296 297 294 294 292 292 290 287 285 288 281 283 281 284 285 284 284 287 286 285 285 285 286 286 285 286 285
297 297 297 297 297 297 294 296 295 296 289 283 283 288 290 294 294 294 295 295 293 291 289 287 285 289 287 288 286 283 283 283 282 281 284 284 284 285 285 284 284 285 284 283
297 297 298 298 298 297 291 288 295 296 295 286 278 286 287 289 291 291 292 293 293 292 290 288 290 292 289 283 281 281 283 285 285 281 284 285 284 285 284 283 283 284 284 284
297 298 298 298 298 292 286 284 293 297 295 285 279 281 288 289 291 290 289 290 291 289 287 285 285 286 289 283 275 278 281 283 284 284 284 282 282 280 281 282 282 284 283 283
296 296 297 297 297 295 289 293 296 294 289 288 278 278 281 286 285 284 289 287 288 288 287 288 287 287 287 280 280 282 283 283 282 281 281 280 279 279 281 282 282 281 281 281
295 296 296 292 290 286 290 296 295 293 289 281 279 275 273 286 285 284 284 284 278 284 282 282 283 280 275 279 279 280 281 281 281 281 281 280 279 281 282 282 282 280 281 282
295 290 285 280 288 295 293 289 285 283 284 285 279 281 277 281 280 278 278 280 279 273 278 282 278 277 279 281 283 283 282 281 279 278 278 280 279 280 281 281 282 281 281 282
285 280 279 286 293 286 282 277 279 280 277 281 279 280 277 284 278 278 282 275 275 267 275 273 272 273 278 281 281 281 280 281 282 283 283 282 281 281 281 281 281 281 281 280
285 286 286 282 278 273 272 267 276 276 274 277 275 276 279 281 282 276 274 271 271 266 274 268 268 275 279 277 276 277 279 280 280 281 280 279 279 279 279 279 279 279 280 280
283 278 268 268 269 262 260 263 267 268 274 272 274 272 275 276 278 269 271 266 265 272 265 267 272 277 279 279 280 280 280 279 278 278 278 278 279 279 279 278 279 279 279 279
271 265 262 262 259 267 271 269 268 274 273 271 269 268 274 278 271 272 269 269 267 258 257 267 274 277 279 280 280 279 278 278 278 279 279 279 278 278 279 279 279 279 278 278
267 265 261 260 272 273 272 273 274 275 273 273 269 268 269 265 266 270 265 260 260 266 270 274 274 277 277 277 278 277 277 277 274 275 274 276 276 276 277 278 278 277 278 278
270 269 264 269 267 268 269 266 268 273 273 273 271 261 259 260 262 261 258 258 258 264 267 272 269 271 273 275 276 276 276 276 276 277 277 277 277 277 277 278 277 277 277 276
272 272 276 274 271 270 270 270 272 274 272 264 266 261 261 265 259 259 261 261 267 270 272 272 273 272 274 273 272 273 275 275 275 275 277 276 277 277 275 274 276 277 278 277
Wind_Speed
20 21 21 21 21 14 4 3 3 1 2 6 2 3 2 0 3 2 2 2 1 3 3 1 2 2 3 2 3 4 1 6 3 5 2 5 4 4 5 6 5 0 4 12
20 22 23 24 21 11 2 3 1 2 3 4 2 2 1 1 1 1 2 2 2 1 3 2 4 4 2 2 2 4 3 1 2 6 4 4 3 5 5 4 3 7 7 11
20 22 24 25 24 14 4 3 3 5 5 1 6 3 1 0 1 1 1 1 2 3 3 2 1 2 1 2 2 3 2 2 6 7 3 5 4 5 6 6 4 5 10 8
18 22 25 26 27 12 3 4 0 3 2 4 2 2 3 3 2 1 1 2 2 2 1 3 2 1 1 1 2 2 4 5 5 6 7 4 6 9 10 11 14 11 15 9
17 18 22 25 29 11 6 3 2 3 1 3 1 2 4 5 2 5 3 3 2 6 5 7 7 6 4 7 1 5 1 4 3 6 6 10 7 13 12 20 17 16 17 19
15 17 19 22 26 13 4 2 1 4 2 1 2 3 2 3 1 3 3 5 3 4 8 4 5 6 4 6 10 9 7 5 3 6 3 4 6 18 17 5 6 9 12 6
11 14 16 19 20 12 3 0 2 3 3 1 3 1 2 4 3 3 2 4 5 2 1 3 2 4 7 7 10 7 8 6 4 3 3 5 7 2 7 9 4 3 5 4
14 13 14 15 16 17 3 0 2 2 2 2 3 2 3 2 2 3 5 5 3 1 2 2 4 4 4 4 1 8 4 6 2 4 5 7 11 2 5 7 2 3 5 5
13 14 14 16 16 16 2 1 2 2 3 6 1 3 2 4 3 4 2 1 1 2 2 2 5 6 6 4 1 4 5 1 5 3 4 7 4 2 2 3 3 7 7 7
12 13 14 15 16 18 5 1 2 3 3 4 2 4 4 2 1 2 2 2 1 1 3 4 5 6 5 5 7 6 4 2 12 10 6 7 7 4 1 4 2 3 4 3
12 12 13 15 16 18 7 2 3 2 3 5 4 3 3 0 2 3 2 3 1 2 3 4 5 4 6 3 5 8 9 8 5 4 4 9 6 5 2 1 1 2 4 2
12 11 12 13 14 16 13 2 4 4 3 4 2 4 3 4 3 4 2 2 2 4 2 2 1 3 2 1 3 2 3 6 5 8 6 5 6 8 6 4 1 2 5 7
11 11 12 13 13 14 10 2 3 3 3 3 2 6 2 2 7 6 4 2 4 4 4 2 2 5 1 3 5 2 2 2 3 3 3 4 5 6 2 1 1 1 1 3
11 12 12 12 13 13 10 2 2 0 3 4 3 2 3 6 3 4 5 4 1 2 2 3 4 3 4 4 4 4 4 3 1 4 3 6 6 4 2 3 2 2 2 1
11 12 13 13 14 14 5 2 1 1 1 3 5 8 2 4 5 5 3 3 3 2 3 4 3 1 2 3 3 5 4 4 4 4 3 1 2 2 4 5 3 3 4 5
11 12 12 13 13 12 3 2 0 3 1 2 3 4 4 4 4 3 2 3 3 3 2 1 3 5 4 3 4 1 2 1 2 2 4 1 3 1 3 2 4 4 5 6
12 14 14 15 15 2 2 3 2 4 1 1 4 4 2 3 2 1 2 2 1 2 3 3 3 4 5 2 4 3 3 3 3 4 2 1 0 0 3 5 8 9 8 9
14 16 17 18 12 3 2 1 4 2 0 2 3 4 4 5 2 1 2 1 0 2 1 1 2 0 2 2 3 3 3 2 3 1 2 3 4 4 5 4 5 7 8 7
16 17 18 3 2 0 1 4 7 1 0 2 2 2 3 5 2 1 2 1 1 1 2 2 1 1 1 2 3 4 4 1 2 2 4 4 3 6 7 7 9 7 11 10
16 4 3 3 2 10 6 2 1 1 1 2 2 3 2 3 3 2 1 1 2 1 2 2 1 3 2 6 4 3 4 4 3 2 6 4 6 6 7 9 9 8 11 13
4 4 2 3 8 3 3 2 2 1 1 2 2 1 2 2 2 1 1 1 1 2 2 1 2 3 3 4 5 3 3 4 5 5 6 6 8 9 10 12 10 10 12 12
3 2 3 3 4 4 2 2 3 3 3 1 2 3 1 1 2 2 3 1 3 3 3 4 2 3 4 6 5 6 5 6 6 3 6 7 8 8 9 10 11 11 12 12
3 4 5 5 4 6 5 2 4 2 2 2 3 3 1 4 3 2 2 2 3 1 5 1 1 1 5 7 5 5 7 8 7 8 8 8 8 8 8 12 10 11 11 11
4 4 4 3 4 1 1 3 3 3 2 1 1 2 2 3 4 2 2 1 3 4 4 1 2 6 7 4 4 5 8 9 9 11 12 12 12 13 13 10 10 11 13 13
2 4 1 2 3 2 3 2 2 2 1 2 3 3 3 3 3 2 4 7 3 1 1 2 3 6 6 6 6 7 8 8 7 8 8 11 11 11 13 10 10 9 11 13
3 2 3 2 3 3 3 2 2 2 1 2 3 2 5 3 2 4 3 4 3 4 3 4 3 4 6 7 8 8 7 8 9 9 10 11 11 12 14 13 11 11 11 12
1 1 2 1 2 4 3 2 2 1 3 1 3 4 7 1 4 3 3 4 4 4 4 3 4 5 7 6 6 6 7 8 8 8 9 11 12 11 11 12 12 11 11 10
Wind_Direction
358 355 354 357 359 359 70 98 47 198 117 48 36 55 7 342 169 188 189 174 128 160 172 43 10 276 237 156 140 126 134 133 195 210 219 183 178 204 156 123 241 176 143 273
356 355 354 356 358 10 117 95 240 7 91 84 16 277 32 25 51 316 340 354 20 135 148 140 169 175 306 118 120 146 186 249 11 326 353 352 227 202 172 132 109 201 134 261
357 356 355 355 357 355 103 72 39 334 50 86 124 141 150 202 332 292 105 9 37 23 32 31 119 137 192 180 144 128 107 171 198 203 214 130 208 219 200 151 141 185 224 268
5 360 356 355 357 359 78 35 351 191 327 344 100 114 157 165 233 295 321 8 250 168 359 351 285 79 11 121 198 112 148 223 210 238 222 224 223 240 193 198 218 197 254 193
9 7 3 358 356 356 76 89 80 4 174 323 19 22 216 195 192 154 213 213 192 194 202 195 214 159 198 214 97 171 192 260 196 279 242 225 240 246 220 216 233 242 264 285
13 13 9 6 4 12 67 331 355 108 311 81 89 240 189 207 127 196 172 183 158 214 240 220 230 214 224 199 163 190 168 179 132 260 327 310 273 230 232 176 219 214 228 259
22 26 21 14 12 31 105 307 95 68 268 150 204 233 226 220 230 240 210 175 166 221 123 303 275 256 245 209 223 172 159 157 160 245 10 253 250 219 203 211 17 237 42 44
34 31 23 20 18 13 75 64 93 105 269 242 280 208 244 292 283 238 232 225 189 127 74 24 328 314 316 254 210 207 176 147 215 205 206 292 306 261 143 158 152 63 77 9
37 30 25 19 15 12 90 123 132 100 125 243 168 219 227 210 217 314 231 322 328 75 125 142 212 223 228 265 245 24 138 69 164 147 211 236 237 7 11 69 147 40 43 22
29 26 23 20 13 4 343 267 120 113 167 264 183 206 199 175 185 220 281 177 163 71 162 192 200 233 203 230 189 171 133 183 213 224 254 287 266 322 118 169 158 62 53 22
23 20 18 16 13 6 1 311 13 130 194 269 208 209 191 302 174 176 223 33 279 91 188 194 225 212 235 230 176 177 169 168 198 187 209 265 324 50 121 14 32 37 339 345
5 8 7 6 7 8 6 322 346 329 239 269 249 239 240 206 212 167 233 200 168 209 156 226 267 279 300 352 256 137 220 195 189 187 210 95 38 115 81 44 124 297 314 330
357 1 4 360 360 1 14 304 319 336 290 263 260 252 273 259 225 197 208 246 222 196 169 160 238 243 148 228 231 263 268 145 122 13 111 95 109 82 86 236 240 281 323 330
350 352 353 352 350 349 2 322 302 195 276 278 266 35 312 301 324 208 206 187 19 84 106 209 219 218 190 225 258 200 204 4 223 262 121 123 130 116 88 101 88 357 306 6
338 339 339 339 341 340 342 226 325 292 230 297 299 317 271 329 234 242 227 187 162 175 206 217 216 219 232 218 235 224 183 205 217 261 114 80 303 49 35 33 27 354 328 335
319 322 324 325 330 340 339 261 91 346 31 279 290 288 320 321 10 27 200 203 189 202 203 234 222 186 222 250 250 61 124 134 85 79 28 10 287 345 55 360 319 291 288 262
323 320 317 316 315 313 215 238 319 298 39 274 305 295 19 341 321 50 40 31 291 190 220 226 207 210 201 244 249 161 111 73 49 43 142 42 27 200 314 278 277 284 278 271
313 313 314 314 315 355 249 252 69 82 200 251 272 276 345 9 360 30 12 64 36 264 307 250 257 205 213 267 112 104 116 96 17 23 38 208 264 287 292 270 285 289 286 283
313 312 309 325 47 85 335 290 321 102 2 250 209 240 271 347 355 334 360 68 307 336 255 255 23 310 252 26 121 74 41 96 241 324 308 299 257 281 292 295 305 292 298 297
322 5 16 350 358 310 332 70 140 82 224 236 269 344 297 4 337 335 20 327 236 291 266 331 37 74 25 42 78 173 242 219 172 348 313 311 297 283 280 284 283 274 279 286
25 3 314 278 315 25 28 334 275 148 220 49 26 309 325 347 304 355 353 305 355 59 273 106 356 53 25 340 10 341 291 274 272 254 275 278 272 283 289 292 292 294 292 290
188 268 332 359 27 22 48 299 309 31 92 293 230 275 196 270 350 70 324 106 24 246 327 64 62 24 1 332 313 299 326 338 325 295 286 288 281 275 272 279 290 290 288 292
47 42 40 45 325 33 97 321 326 29 323 330 337 322 346 1 27 39 24 20 236 5 40 101 62 310 271 264 276 318 318 311 304 299 287 278 278 286 285 287 284 283 287 290
75 82 346 104 322 240 175 188 201 262 106 3 82 344 37 19 5 12 348 275 46 40 49 103 234 240 268 302 317 321 301 301 298 296 299 299 296 292 292 289 287 289 288 290
102 77 243 223 247 306 270 304 23 322 177 64 24 22 83 332 24 16 50 19 354 217 49 208 275 302 309 299 294 290 286 286 280 279 278 282 285 288 291 291 282 279 279 288
78 80 37 259 46 323 340 6 295 285 75 43 62 81 45 308 126 47 226 109 221 252 234 252 283 283 291 291 300 303 298 295 295 296 292 295 298 298 296 302 297 288 283 281
71 262 312 169 184 208 240 184 254 257 73 170 83 73 218 10 34 323 185 185 229 242 270 255 248 255 280 289 289 289 290 296 290 291 303 304 304 301 300 296 295 291 284 276